Powrót do katalogu

STARLINK-11542

AktywnyŁącznośćVLEO
NORAD 62988·PAYLOAD·🇺🇸 United States

Wystrzelony Feb 11, 2025 z Cape Canaveral Space Force Station

Loading…

Następne Przeloty (najbliższe 24 godziny)

TLE

ŚwieżeSource: CelesTrak SupGP

Epoka: Sep 15, 2026, 03:07 UTC

1 62988C 25031H   26258.13034722  .00070372  00000+0  54652-3 0  2580
2 62988  43.0000 299.2991 0001474 256.7702 316.2918 15.70806445    19

Śledź STARLINK-11542 w czasie rzeczywistym z AllMySat

Download on the App Store